This demonstration page uses our WeatherBlox Daily Observations layout. Learn more.

Left ArrowRight Arrow

39.92423, -83.80882

Hourly Observations for July 6, 2020

Temp ( °F °C ) Dew Point ( °F °C ) Humidity (%) Winds ( mph kmh ) Pressure ( in mb ) Visibility ( mi km ) Precip ( " mm )
12:56 am 00:56 Clear 75 23.9 63 17.2 66 66 ENE 3 6 29.98 1015 10 16 N/A
1:56 am 01:56 Clear 72 22.2 63 17.2 73 73 E 3 6 29.98 1015 10 16 N/A
2:56 am 02:56 Mostly Cloudy 72 22.2 62 16.7 71 71 NNE 3 6 29.98 1015 10 16 N/A
3:56 am 03:56 Partly Cloudy 73 22.8 62 16.7 69 69 N N/A 29.97 1015 10 16 N/A
4:56 am 04:56 Clear 69 20.6 65 18.3 87 87 E 3 6 29.98 1015 10 16 N/A
5:56 am 05:56 Mostly Clear 70 21.1 63 17.2 79 79 E 5 7 29.99 1016 10 16 N/A
6:56 am 06:56 Sunny 69 20.6 66 18.9 90 90 N N/A 30.00 1016 10 16 N/A
7:56 am 07:56 Sunny 74 23.3 66 18.9 76 76 undefined N/A 30.01 1016 10 16 N/A
8:56 am 08:56 Sunny 79 26.1 70 21.1 74 74 ESE 6 9 30.01 1016 10 16 N/A
9:56 am 09:56 Sunny 84 28.9 72 22.2 67 67 ESE 6 9 30.03 1017 10 16 N/A
10:56 am 10:56 Sunny 86 30 72 22.2 63 63 VRB 6 9 30.04 1017 7 11 N/A
11:56 am 11:56 Partly Cloudy 88 31.1 72 22.2 59 59 VRB 6 9 30.04 1017 10 16 N/A
12:56 pm 12:56 Cloudy 87 30.6 72 22.2 61 61 SSW 3 6 30.03 1017 10 16 N/A
1:07 pm 13:07 Mostly Cloudy with Thunderstorms 90 32 72 22 55 55 VRB 3 6 29.98 1015 10 16 N/A
1:32 pm 13:32 Mostly Cloudy with Nearby Thunderstorms 88 31 70 21 55 55 N N/A 29.97 1015 10 16 N/A
1:56 pm 13:56 Mostly Cloudy with Thunderstorms 87 30.6 73 22.8 63 63 N 8 13 30.01 1016 10 16 N/A
2:20 pm 14:20 Mostly Cloudy 86 30 72 22 62 62 N 7 11 29.98 1015 10 16 N/A
2:32 pm 14:32 Mostly Cloudy with Nearby Thunderstorms 81 27 73 23 79 79 NE 7 11 29.99 1015 4 6 0.04 1.02
2:56 pm 14:56 Windy with Storms Likely 76 24.4 72 22.2 88 88 ESE 28 44 30.03 1017 9 14 0.14 3.56
3:03 pm 15:03 Cloudy with Thunderstorms 73 23 70 21 89 89 ESE 18 30 30.01 1016 10 16 0.02 0.51
3:20 pm 15:20 Windy with Storms Likely 75 24 70 21 83 83 SE 22 35 30.00 1016 7 11 0.07 1.78
3:56 pm 15:56 Cloudy with Thunderstorms 74 23.3 70 21.1 88 88 SE 16 26 30.01 1016 10 16 0.14 3.56
4:56 pm 16:56 Cloudy with Nearby Thunderstorms 75 23.9 71 21.7 88 88 NW 9 15 30.02 1017 10 16 0.09 2.29
5:03 pm 17:03 Cloudy with Light Rain 75 24 72 22 89 89 N N/A 30.00 1016 10 16 0.01 0.25
5:56 pm 17:56 Sunny 83 28.3 75 23.9 77 77 ESE 7 11 29.98 1015 10 16 0.06 1.52
6:56 pm 18:56 Partly Cloudy 82 27.8 74 23.3 77 77 SSE 3 6 30.00 1016 10 16 0.06 1.52
7:56 pm 19:56 Sunny 83 28.3 75 23.9 77 77 W 3 6 29.98 1015 10 16 0.04 1.02
8:56 pm 20:56 Sunny 79 26.1 72 22.2 79 79 SW 7 11 29.99 1016 10 16 0.03 0.76
9:56 pm 21:56 Clear 75 23.9 75 23.9 100 100 N N/A 29.98 1015 10 16 0.02 0.51
10:56 pm 22:56 Clear 73 22.8 73 22.8 100 100 E 3 6 30.01 1016 9 14 0.02 0.51
11:56 pm 23:56 Mostly Clear 74 23.3 74 23.3 100 100 SW 3 6 30.02 1017 10 16 0.01 0.25

Powered by AerisWeather